Radiation Dose at Monitoring Post of Fukushima Daini Nuclear Power Station
Date,Time,MP-1(microSv/h),MP-2(microSv/h),MP-3(microSv/h),MP-4(microSv/h),MP-5(microSv/h),MP-6(microSv/h),MP-7(microSv/h),Wind Direction,Wind Velocity(m/s),Rain
2020/12/21,00:00,0.178,0.159,0.261,0.246,0.239,0.140,0.085,north-northeast,1.1,No
2020/12/21,00:10,0.179,0.161,0.260,0.247,0.240,0.141,0.086,northeast,0.8,No
2020/12/21,00:20,0.179,0.160,0.261,0.247,0.240,0.141,0.086,east,1.9,No
2020/12/21,00:30,0.179,0.159,0.260,0.247,0.240,0.141,0.086,east-southeast,2.4,No
2020/12/21,00:40,0.178,0.160,0.260,0.246,0.239,0.141,0.085,southeast,0.8,No
2020/12/21,00:50,0.179,0.160,0.261,0.248,0.239,0.141,0.085,west,0.9,No
2020/12/21,01:00,0.179,0.159,0.262,0.246,0.241,0.141,0.086,west-southwest,2.1,No
2020/12/21,01:10,0.179,0.160,0.262,0.247,0.240,0.142,0.086,west-southwest,1.1,No
2020/12/21,01:20,0.178,0.159,0.261,0.248,0.240,0.141,0.086,-,CALM,No
2020/12/21,01:30,0.179,0.161,0.262,0.247,0.239,0.141,0.085,southwest,1.8,No
2020/12/21,01:40,0.179,0.160,0.261,0.246,0.239,0.142,0.086,south-southwest,1.7,No
2020/12/21,01:50,0.178,0.160,0.261,0.247,0.240,0.142,0.086,south-southwest,2.8,No
2020/12/21,02:00,0.179,0.159,0.261,0.246,0.239,0.141,0.086,south-southeast,1.9,No
2020/12/21,02:10,0.179,0.159,0.260,0.247,0.239,0.142,0.085,south,3.0,No
2020/12/21,02:20,0.179,0.160,0.261,0.247,0.240,0.141,0.086,south-southwest,2.3,No
2020/12/21,02:30,0.179,0.161,0.260,0.247,0.240,0.141,0.086,south-southeast,3.1,No
2020/12/21,02:40,0.178,0.160,0.262,0.247,0.240,0.141,0.086,south-southwest,1.7,No
2020/12/21,02:50,0.179,0.160,0.262,0.247,0.240,0.141,0.086,south,3.1,No
2020/12/21,03:00,0.180,0.161,0.261,0.247,0.240,0.141,0.086,south,2.3,No
2020/12/21,03:10,0.178,0.160,0.262,0.246,0.240,0.142,0.086,west,0.6,No
2020/12/21,03:20,0.180,0.159,0.261,0.246,0.240,0.142,0.085,southeast,0.6,No
2020/12/21,03:30,0.179,0.160,0.260,0.246,0.239,0.142,0.086,south-southwest,1.3,No
2020/12/21,03:40,0.178,0.160,0.262,0.247,0.241,0.142,0.086,southwest,2.3,No
2020/12/21,03:50,0.178,0.161,0.261,0.247,0.240,0.142,0.086,south-southwest,2.1,No
2020/12/21,04:00,0.178,0.161,0.261,0.247,0.241,0.141,0.086,south,2.2,No
2020/12/21,04:10,0.179,0.160,0.262,0.246,0.239,0.142,0.086,south-southwest,0.6,No
2020/12/21,04:20,0.180,0.160,0.261,0.247,0.240,0.142,0.086,west-southwest,1.1,No
2020/12/21,04:30,0.178,0.160,0.261,0.247,0.240,0.142,0.086,southwest,1.6,No
2020/12/21,04:40,0.180,0.160,0.260,0.247,0.241,0.142,0.086,south-southwest,2.2,No
2020/12/21,04:50,0.178,0.160,0.261,0.248,0.240,0.142,0.086,southeast,0.6,No
2020/12/21,05:00,0.179,0.160,0.259,0.247,0.240,0.141,0.086,south-southeast,0.6,No
2020/12/21,05:10,0.178,0.159,0.261,0.247,0.240,0.141,0.087,southeast,1.1,No
2020/12/21,05:20,0.180,0.159,0.261,0.246,0.241,0.141,0.086,east,0.9,No
2020/12/21,05:30,0.178,0.160,0.262,0.247,0.241,0.141,0.086,south-southeast,0.8,No
2020/12/21,05:40,0.178,0.160,0.262,0.246,0.240,0.141,0.087,south,1.0,No
2020/12/21,05:50,0.179,0.160,0.261,0.248,0.240,0.142,0.086,south,1.4,No
2020/12/21,06:00,0.179,0.160,0.260,0.247,0.240,0.141,0.086,south-southeast,1.4,No
2020/12/21,06:10,0.179,0.160,0.260,0.248,0.240,0.141,0.086,south,1.2,No
2020/12/21,06:20,0.179,0.160,0.261,0.247,0.240,0.141,0.085,south-southeast,1.1,No
2020/12/21,06:30,0.179,0.160,0.260,0.247,0.240,0.141,0.086,southwest,1.5,No
2020/12/21,06:40,0.179,0.161,0.261,0.246,0.240,0.142,0.085,west-southwest,1.5,No
2020/12/21,06:50,0.179,0.159,0.262,0.246,0.240,0.141,0.087,southwest,1.4,No
2020/12/21,07:00,0.178,0.160,0.261,0.246,0.240,0.141,0.086,southwest,0.9,No
2020/12/21,07:10,0.179,0.160,0.261,0.247,0.239,0.142,0.086,-,CALM,No
2020/12/21,07:20,0.178,0.160,0.262,0.247,0.240,0.141,0.086,south-southeast,1.0,No
2020/12/21,07:30,0.179,0.160,0.261,0.246,0.239,0.140,0.086,south-southeast,1.1,No
2020/12/21,07:40,0.179,0.159,0.261,0.245,0.240,0.142,0.086,southeast,0.7,No
2020/12/21,07:50,0.179,0.159,0.261,0.246,0.241,0.141,0.086,north-northwest,0.6,No
2020/12/21,08:00,0.178,0.160,0.260,0.246,0.241,0.142,0.086,east-southeast,0.6,No
2020/12/21,08:10,0.179,0.160,0.261,0.245,0.240,0.141,0.086,south-southeast,0.6,No
2020/12/21,08:20,0.179,0.160,0.260,0.246,0.240,0.141,0.086,-,CALM,No
2020/12/21,08:30,0.179,0.160,0.261,0.246,0.240,0.141,0.086,north-northwest,0.6,No
2020/12/21,08:40,0.179,0.161,0.261,0.246,0.241,0.141,0.086,south,0.8,No
2020/12/21,08:50,0.177,0.160,0.260,0.246,0.240,0.140,0.086,west-southwest,0.6,No
2020/12/21,09:00,0.179,0.161,0.261,0.246,0.240,0.141,0.085,southwest,0.6,No
2020/12/21,09:10,0.179,0.160,0.261,0.247,0.239,0.141,0.086,south-southwest,1.1,No
2020/12/21,09:20,0.178,0.160,0.261,0.245,0.242,0.141,0.086,north-northeast,1.2,No
2020/12/21,09:30,0.179,0.159,0.259,0.247,0.240,0.141,0.086,east,1.3,No
2020/12/21,09:40,0.179,0.159,0.261,0.246,0.241,0.142,0.086,east,1.2,No
2020/12/21,09:50,0.179,0.159,0.260,0.245,0.241,0.142,0.086,east,1.5,No
2020/12/21,10:00,0.178,0.159,0.260,0.245,0.240,0.141,0.085,southeast,1.2,No
2020/12/21,10:10,0.179,0.159,0.260,0.246,0.239,0.142,0.086,east,1.4,No
2020/12/21,10:20,0.178,0.160,0.261,0.246,0.239,0.142,0.085,east-southeast,1.4,No
2020/12/21,10:30,0.178,0.158,0.260,0.247,0.240,0.141,0.086,east-southeast,1.9,No
2020/12/21,10:40,0.178,0.159,0.259,0.247,0.239,0.143,0.086,southeast,3.5,No
2020/12/21,10:50,0.179,0.160,0.259,0.246,0.241,0.142,0.086,east-southeast,3.0,No
2020/12/21,11:00,0.178,0.158,0.258,0.246,0.238,0.141,0.086,east,3.4,No
2020/12/21,11:10,0.178,0.159,0.259,0.247,0.240,0.141,0.086,east,2.8,No
2020/12/21,11:20,0.178,0.161,0.260,0.247,0.240,0.142,0.085,east,2.5,No
2020/12/21,11:30,0.178,0.161,0.261,0.247,0.240,0.141,0.086,east-southeast,2.4,No
2020/12/21,11:40,0.178,0.159,0.260,0.248,0.241,0.142,0.086,east,2.0,No
2020/12/21,11:50,0.177,0.159,0.261,0.245,0.240,0.142,0.086,east-northeast,3.4,No
2020/12/21,12:00,0.179,0.158,0.261,0.246,0.239,0.142,0.085,east-northeast,2.9,No
2020/12/21,12:10,0.177,0.159,0.259,0.246,0.239,0.141,0.085,east-southeast,2.8,No
2020/12/21,12:20,0.177,0.161,0.259,0.245,0.239,0.141,0.086,east,2.4,No
2020/12/21,12:30,0.178,0.159,0.261,0.246,0.242,0.142,0.086,east,2.5,No
2020/12/21,12:40,0.178,0.159,0.259,0.245,0.238,0.142,0.086,east-northeast,1.6,No
2020/12/21,12:50,0.178,0.161,0.262,0.246,0.240,0.141,0.086,east-northeast,3.1,No
2020/12/21,13:00,0.177,0.161,0.261,0.246,0.242,0.141,0.086,east-northeast,3.4,No
2020/12/21,13:10,0.177,0.160,0.261,0.245,0.240,0.142,0.086,east-northeast,2.4,No
2020/12/21,13:20,0.180,0.159,0.260,0.246,0.241,0.142,0.086,east-northeast,2.5,No
2020/12/21,13:30,0.177,0.160,0.261,0.246,0.241,0.142,0.086,east-northeast,1.9,No
2020/12/21,13:40,0.178,0.160,0.260,0.248,0.241,0.141,0.086,-,CALM,No
2020/12/21,13:50,0.179,0.159,0.260,0.248,0.242,0.141,0.086,northeast,1.0,No
2020/12/21,14:00,0.177,0.160,0.263,0.246,0.239,0.141,0.086,west,4.0,No
2020/12/21,14:10,0.178,0.160,0.260,0.246,0.240,0.141,0.086,northwest,4.8,No
2020/12/21,14:20,0.178,0.160,0.260,0.247,0.239,0.140,0.086,west-northwest,6.4,No
2020/12/21,14:30,0.179,0.160,0.260,0.246,0.240,0.140,0.086,west,5.2,No
2020/12/21,14:40,0.177,0.160,0.262,0.246,0.241,0.141,0.085,west-northwest,8.2,No
2020/12/21,14:50,0.178,0.160,0.259,0.246,0.240,0.141,0.085,west-northwest,7.9,No
2020/12/21,15:00,0.179,0.159,0.261,0.246,0.241,0.141,0.085,west,7.3,No
2020/12/21,15:10,0.180,0.160,0.261,0.248,0.241,0.142,0.085,west-northwest,8.1,No
2020/12/21,15:20,0.178,0.160,0.260,0.248,0.241,0.142,0.086,west-northwest,6.2,No
2020/12/21,15:30,0.177,0.160,0.260,0.248,0.241,0.141,0.086,northwest,4.9,No
2020/12/21,15:40,0.179,0.159,0.261,0.248,0.240,0.140,0.085,northwest,5.2,No
2020/12/21,15:50,0.178,0.161,0.262,0.247,0.241,0.141,0.085,northwest,3.5,No
2020/12/21,16:00,0.177,0.160,0.261,0.247,0.241,0.141,0.085,west-northwest,3.7,No
2020/12/21,16:10,0.179,0.160,0.260,0.247,0.240,0.141,0.086,west-northwest,3.2,No
2020/12/21,16:20,0.179,0.160,0.261,0.247,0.241,0.141,0.086,west-northwest,2.5,No
2020/12/21,16:30,0.179,0.160,0.260,0.247,0.240,0.142,0.086,west,3.0,No
2020/12/21,16:40,0.178,0.159,0.261,0.247,0.240,0.142,0.085,west,4.3,No
2020/12/21,16:50,0.177,0.160,0.261,0.248,0.241,0.142,0.086,west-northwest,4.1,No
2020/12/21,17:00,0.179,0.160,0.261,0.246,0.240,0.142,0.086,west,3.8,No
2020/12/21,17:10,0.178,0.160,0.262,0.248,0.240,0.142,0.085,west,3.8,No
2020/12/21,17:20,0.179,0.160,0.261,0.248,0.240,0.141,0.086,west,4.5,No
2020/12/21,17:30,0.178,0.161,0.262,0.247,0.241,0.141,0.086,west,4.2,No
2020/12/21,17:40,0.178,0.160,0.260,0.247,0.240,0.142,0.085,west,3.1,No
2020/12/21,17:50,0.179,0.161,0.261,0.247,0.240,0.142,0.086,west,2.8,No
2020/12/21,18:00,0.179,0.159,0.261,0.247,0.241,0.142,0.086,west,1.7,No
2020/12/21,18:10,0.179,0.160,0.260,0.248,0.240,0.141,0.086,-,CALM,No
2020/12/21,18:20,0.179,0.161,0.261,0.248,0.241,0.142,0.085,northeast,0.6,No
2020/12/21,18:30,0.179,0.161,0.259,0.248,0.240,0.142,0.086,west-southwest,1.4,No
2020/12/21,18:40,0.179,0.160,0.261,0.246,0.240,0.141,0.086,west-southwest,1.7,No
2020/12/21,18:50,0.179,0.160,0.260,0.245,0.239,0.141,0.086,west,1.1,No
2020/12/21,19:00,0.180,0.160,0.263,0.249,0.241,0.143,0.086,west,1.2,No
2020/12/21,19:10,0.179,0.160,0.261,0.247,0.241,0.142,0.086,northwest,0.8,No
2020/12/21,19:20,0.178,0.160,0.261,0.247,0.241,0.143,0.086,west,1.7,No
2020/12/21,19:30,0.179,0.160,0.261,0.247,0.239,0.142,0.086,west,1.3,No
2020/12/21,19:40,0.179,0.160,0.261,0.246,0.240,0.142,0.086,west,0.7,No
2020/12/21,19:50,0.179,0.160,0.261,0.248,0.240,0.143,0.087,west,0.7,No
2020/12/21,20:00,0.179,0.160,0.261,0.247,0.241,0.141,0.086,west,1.5,No
2020/12/21,20:10,0.180,0.160,0.261,0.249,0.239,0.142,0.086,west,2.3,No
2020/12/21,20:20,0.179,0.161,0.262,0.247,0.240,0.142,0.086,west-southwest,2.3,No
2020/12/21,20:30,0.178,0.160,0.261,0.248,0.239,0.142,0.086,west,3.2,No
2020/12/21,20:40,0.179,0.160,0.262,0.247,0.241,0.142,0.086,west-southwest,4.3,No
2020/12/21,20:50,0.180,0.159,0.262,0.248,0.241,0.142,0.086,west-southwest,3.9,No
2020/12/21,21:00,0.179,0.161,0.261,0.248,0.240,0.142,0.086,west-southwest,3.8,No
2020/12/21,21:10,0.178,0.160,0.262,0.247,0.240,0.143,0.087,west-southwest,3.4,No
2020/12/21,21:20,0.180,0.160,0.262,0.247,0.240,0.142,0.086,west,3.8,No
2020/12/21,21:30,0.177,0.160,0.262,0.248,0.240,0.142,0.086,west,3.5,No
2020/12/21,21:40,0.179,0.160,0.262,0.249,0.240,0.142,0.086,west,4.6,No
2020/12/21,21:50,0.179,0.160,0.261,0.248,0.241,0.142,0.087,west,4.7,No
2020/12/21,22:00,0.179,0.160,0.262,0.247,0.240,0.141,0.087,west,3.2,No
2020/12/21,22:10,0.179,0.161,0.260,0.248,0.241,0.141,0.087,west,1.6,No
2020/12/21,22:20,0.179,0.159,0.261,0.247,0.241,0.142,0.086,west-southwest,1.9,No
2020/12/21,22:30,0.178,0.160,0.261,0.248,0.240,0.142,0.086,west-southwest,2.3,No
2020/12/21,22:40,0.180,0.161,0.261,0.247,0.240,0.142,0.086,west-southwest,3.1,No
2020/12/21,22:50,0.179,0.160,0.261,0.247,0.240,0.142,0.086,west-southwest,3.3,No
2020/12/21,23:00,0.179,0.160,0.261,0.247,0.241,0.143,0.086,west-southwest,4.1,No
2020/12/21,23:10,0.178,0.161,0.262,0.247,0.241,0.143,0.087,west-southwest,4.8,No
2020/12/21,23:20,0.179,0.161,0.261,0.247,0.240,0.142,0.087,west-southwest,6.2,No
2020/12/21,23:30,0.179,0.161,0.262,0.247,0.240,0.142,0.086,west-southwest,6.7,No
2020/12/21,23:40,0.179,0.161,0.262,0.247,0.240,0.142,0.087,west-southwest,5.1,No
2020/12/21,23:50,0.180,0.161,0.262,0.247,0.242,0.142,0.086,west-southwest,5.6,No
